Location: Table Mountain
(47.2500°N, 120.5778°W)
Time: 07:07:12
(UTC-07:00)

Tiangong 2 - Pass Details

Date: 15 October 2017
Orbit: 388 x 392 km, 42.8° (Epoch: 20 October)

Event Time Altitude Azimuth Distance (km) Brightness Sun altitude
Exits shadow 05:40:28 35° 195° (SSW) 644 2.0 -17.8°
Maximum altitude 05:40:43 36° 183° (S) 635 2.0 -17.8°
Drops below altitude 10° 05:43:41 10° 114° (ESE) 1,416 4.8 -17.3°
Sets 05:45:51 0° 106° (ESE) 2,271 6.3 -16.9°
